Wind_Speed
30 29 28 28 26 27 28 27 27 26 25 24 22 22 22 21 21 23 23 23 22 22 25 26 25 25 27 26 25 24 18 17 17 15 16 19 19 15 11 8 10 13 11 12 13 11 8 6 8 9 9 6 0 1 2 2 1 2 2 2 2 3 2 4 5 3 1 4 7 7 8 7 6 5 2 3 3 2 3 3 3 2 3 2 2 2 7 13
28 29 29 28 27 28 28 27 27 25 24 23 21 21 22 22 21 23 23 22 22 22 24 26 26 24 26 26 23 21 17 15 14 15 24 24 16 15 15 13 11 12 12 14 15 14 10 8 9 9 6 4 0 1 2 0 1 1 1 1 2 3 2 1 3 3 1 3 8 7 5 4 3 5 4 4 4 4 4 4 4 4 5 6 1 2 9 12
28 29 29 29 27 27 27 26 27 25 23 22 22 22 22 22 22 23 23 22 21 21 24 26 27 24 23 24 22 20 16 10 8 14 26 25 19 17 15 15 14 13 14 16 17 16 13 11 12 9 4 3 1 2 3 1 1 1 1 2 3 2 2 1 1 2 1 1 7 8 4 2 1 3 3 3 3 4 7 5 5 7 8 9 6 6 10 13
29 29 29 29 29 28 27 26 26 25 23 23 23 24 23 22 22 21 23 22 20 20 22 24 25 24 22 21 20 20 14 4 5 12 21 22 22 20 15 15 15 14 15 16 17 16 12 12 12 7 3 3 2 2 4 2 1 1 1 1 3 1 2 3 0 1 1 1 5 8 5 5 3 3 3 4 4 5 7 6 6 7 6 9 9 10 14 15
29 30 30 30 30 30 28 25 25 25 23 24 23 23 23 22 22 21 23 23 20 20 21 22 23 23 22 19 20 22 12 1 4 9 15 19 22 22 17 15 16 16 16 16 14 12 10 10 9 5 2 4 4 4 4 2 0 2 1 2 3 0 2 3 1 1 0 1 4 8 7 6 5 3 4 6 6 2 1 2 4 4 1 7 10 12 16 17
30 30 31 30 30 28 27 24 25 25 23 23 23 22 23 23 22 21 22 22 21 20 20 21 22 22 21 20 23 21 10 2 1 3 11 17 22 22 17 15 17 17 17 16 11 9 9 9 9 7 3 4 5 6 4 2 1 2 2 2 2 1 2 2 1 1 1 2 6 6 3 5 6 4 2 6 8 2 5 3 2 2 1 6 11 13 15 17
31 30 30 29 28 27 25 25 25 25 24 24 22 22 23 23 22 21 20 21 20 19 19 21 22 22 22 21 20 12 5 4 2 2 6 15 23 22 16 16 17 17 17 15 10 9 10 11 10 6 5 4 3 5 5 3 1 1 3 4 2 1 2 2 0 2 1 2 3 1 2 4 5 3 3 6 8 3 4 2 3 1 3 7 11 13 15 17
33 32 31 29 28 27 26 25 25 25 24 23 21 21 22 22 22 20 19 19 18 19 19 21 22 23 24 21 13 4 3 4 2 2 4 14 22 20 17 16 17 17 16 15 14 12 11 12 9 6 4 4 4 6 6 5 1 1 4 5 3 2 3 3 1 3 1 1 1 2 3 2 1 1 1 6 4 1 1 2 1 2 6 8 9 12 13 15
33 32 32 31 29 29 26 24 25 24 23 22 21 20 19 20 21 19 18 17 17 19 20 22 22 23 24 17 7 2 5 7 4 1 4 14 19 18 18 17 18 19 16 16 16 12 10 10 7 5 4 3 4 7 6 6 3 2 5 6 5 3 3 2 2 3 2 2 0 4 4 2 2 1 4 4 2 3 2 2 1 4 6 7 8 10 12 13
34 32 32 32 30 29 27 24 24 23 23 22 21 19 18 19 20 18 17 16 18 20 21 22 22 24 22 12 6 4 5 7 8 4 7 13 15 17 19 17 20 20 14 13 13 11 10 7 5 4 4 3 3 4 2 3 2 6 9 8 6 4 3 1 3 3 1 3 2 3 3 2 2 1 4 2 4 4 1 1 1 3 6 7 7 8 10 11
34 32 31 31 30 30 28 25 24 23 22 21 20 19 18 18 19 18 16 16 19 20 22 22 24 26 18 8 7 5 3 6 9 9 11 14 14 16 17 16 20 21 15 10 12 16 11 6 7 3 1 4 5 3 1 1 5 9 10 10 7 4 5 3 3 3 1 3 3 2 3 2 2 3 2 3 3 3 1 2 0 2 4 4 6 7 8 10
33 31 30 30 30 31 30 27 26 24 21 20 19 19 19 18 18 18 16 16 19 20 23 23 25 24 12 4 5 4 4 7 9 11 13 15 14 14 14 13 17 20 16 9 12 18 12 10 12 3 1 7 7 4 3 2 4 7 5 7 6 4 5 4 2 2 2 2 2 2 2 3 5 6 1 3 2 2 1 3 2 3 3 3 5 5 7 8
33 30 30 31 31 31 30 28 25 24 22 20 20 19 19 18 17 17 16 16 18 20 23 23 25 21 8 2 4 5 6 8 9 11 13 15 13 12 11 11 14 16 15 11 12 15 12 12 11 3 2 6 4 2 6 4 1 5 1 2 5 5 3 3 2 2 1 1 2 2 4 3 6 5 1 3 3 2 2 3 2 3 3 3 4 5 6 8
33 31 31 32 32 31 30 27 24 23 22 20 19 19 18 17 16 16 16 16 17 20 22 23 24 16 6 2 3 7 8 8 10 11 13 14 12 10 9 11 13 12 11 11 11 12 12 11 10 7 2 2 5 5 7 5 1 5 3 1 2 5 3 4 3 2 2 2 2 3 5 2 3 2 2 2 1 2 4 2 2 2 3 4 4 5 6 8
33 32 33 33 32 31 30 27 24 22 21 20 20 19 18 16 15 14 15 16 16 18 21 23 22 11 3 2 3 8 10 8 10 11 12 15 14 10 8 11 10 8 9 9 10 12 13 12 10 7 3 2 7 8 6 4 1 2 4 4 2 3 2 4 3 3 0 2 1 3 5 4 1 2 3 2 2 0 3 3 2 2 3 4 4 5 6 7
33 33 33 34 32 31 30 27 24 22 21 21 20 19 18 16 14 14 15 16 14 19 21 17 17 11 2 3 4 7 8 6 10 11 12 16 13 10 11 11 8 8 9 9 13 13 9 8 4 1 3 4 7 9 6 4 2 1 3 4 4 4 3 2 2 3 2 1 0 2 4 2 1 2 3 0 2 2 3 4 3 3 3 4 4 4 5 6
34 34 33 33 33 31 30 28 26 24 22 21 20 19 18 15 15 15 14 15 15 19 18 9 13 11 1 3 4 5 6 6 11 12 14 15 11 12 15 9 6 9 11 10 10 7 4 4 1 1 2 3 4 7 7 5 5 3 1 2 2 3 3 2 3 2 2 2 3 2 4 6 1 1 2 2 1 4 5 6 4 3 4 4 3 4 5 6
34 33 33 33 33 31 29 29 26 25 24 22 21 19 18 17 17 16 16 17 16 14 8 2 8 8 2 5 5 4 6 10 13 13 14 14 11 15 12 6 6 10 10 8 3 1 1 2 1 3 3 2 5 8 8 6 7 8 5 4 2 2 3 2 2 1 2 2 4 3 5 11 8 6 7 3 2 3 7 6 5 5 6 5 4 5 5 5
33 32 34 33 33 31 28 29 26 24 25 22 21 22 21 18 16 14 14 14 10 6 3 5 7 3 2 6 4 5 10 14 13 10 11 12 13 13 7 6 8 8 9 7 3 1 2 3 3 5 6 6 7 7 5 4 7 10 7 5 5 4 3 1 2 2 1 3 5 6 7 10 10 8 9 3 3 3 7 6 5 5 6 5 4 5 5 6
32 32 34 34 33 31 29 28 25 26 26 24 28 23 16 14 10 8 7 4 2 1 2 6 5 1 3 4 7 11 13 11 7 6 11 13 14 12 5 4 5 4 6 6 4 2 1 5 7 6 9 10 7 3 3 4 6 9 7 3 4 3 2 1 2 3 1 3 4 4 6 10 10 10 11 4 2 4 8 7 7 6 6 4 4 5 6 7
32 33 33 33 33 32 29 27 26 27 25 28 29 14 6 10 7 8 9 2 1 3 1 4 5 2 3 6 13 14 9 6 4 4 11 12 12 11 3 2 7 7 3 2 4 2 2 7 7 4 5 7 6 5 6 7 6 8 6 5 3 1 2 2 1 3 1 2 2 1 5 10 11 11 11 5 2 6 7 7 7 7 6 4 4 6 7 6
32 32 32 32 33 31 28 26 26 27 26 27 19 3 1 5 7 16 13 4 1 1 1 4 5 4 4 7 11 8 4 5 5 3 7 8 7 7 3 4 9 6 1 3 5 4 4 6 4 4 6 9 7 3 6 8 6 5 4 5 3 2 3 2 1 2 1 2 1 1 4 9 9 10 9 5 4 5 4 6 7 7 7 5 5 5 6 6
31 31 30 30 31 29 27 26 26 27 26 23 13 4 4 8 19 26 11 4 3 2 2 2 3 5 5 4 5 3 5 5 5 4 5 7 4 2 6 7 7 6 4 7 8 7 6 2 3 6 7 10 6 2 7 8 4 3 3 5 3 2 2 2 3 2 1 1 1 1 4 8 7 6 4 1 3 4 4 5 6 5 6 7 6 5 5 7
31 29 28 28 29 27 26 27 26 26 24 18 13 9 10 18 29 25 6 3 4 2 1 1 2 4 4 3 4 4 4 2 4 6 5 7 4 2 5 5 6 7 5 6 7 6 3 3 2 4 5 9 8 5 7 7 3 0 2 4 3 5 3 1 4 4 1 1 1 2 5 5 3 3 2 2 2 2 2 2 2 2 4 5 4 3 3 5
32 28 28 29 28 27 28 26 23 24 21 12 13 12 14 23 28 18 4 2 3 2 0 1 1 2 3 4 4 3 4 3 2 2 2 4 5 3 4 2 2 6 5 5 6 4 2 3 1 5 3 5 8 7 6 6 4 2 3 2 2 7 6 4 6 5 3 3 1 2 5 3 1 2 3 1 1 1 1 1 2 2 1 1 1 1 1 1
32 27 30 30 28 32 29 18 17 22 16 12 15 14 15 22 23 14 3 2 3 1 2 2 1 4 5 2 1 3 5 4 2 3 2 3 3 3 4 2 0 3 4 5 4 1 3 1 1 5 7 6 6 6 4 4 4 3 2 2 3 7 9 8 7 4 2 2 1 1 4 2 0 2 3 1 1 3 2 2 4 3 3 3 2 2 2 2
31 28 31 29 32 35 21 11 19 21 11 11 18 16 16 20 18 9 2 2 3 3 3 1 1 5 6 1 0 4 5 4 3 3 2 1 1 1 4 5 2 3 2 3 3 1 4 4 1 3 6 7 6 5 4 5 5 3 1 3 7 8 8 8 6 2 0 1 1 0 2 3 3 1 2 0 2 4 3 3 4 4 4 4 4 4 3 3
29 28 30 30 36 29 12 14 25 20 9 9 17 17 16 19 13 4 2 3 3 3 3 1 1 5 3 2 3 2 1 3 5 4 2 2 1 1 3 5 4 5 1 2 4 1 3 5 5 6 6 6 4 1 2 4 3 1 0 3 5 6 6 4 3 2 2 1 3 1 3 4 4 1 2 1 3 4 2 3 4 4 5 5 5 5 5 4
29 29 29 33 36 20 8 17 24 21 16 12 16 18 17 16 8 2 1 3 3 2 1 2 4 4 1 2 4 3 1 3 2 3 1 2 2 2 2 4 6 10 4 2 2 1 1 2 2 3 4 4 2 4 2 1 2 3 5 6 6 5 5 3 2 3 2 3 4 2 2 4 4 2 2 1 2 5 4 3 3 3 4 5 5 6 5 5
28 30 30 37 34 17 10 14 19 25 20 12 17 20 16 10 4 2 4 4 4 2 1 2 3 3 5 6 3 2 2 3 1 3 1 0 4 5 2 2 6 9 4 6 6 2 0 0 2 1 0 3 4 5 4 3 4 8 7 7 8 5 3 3 2 2 1 4 2 2 3 3 3 2 2 2 2 4 6 5 4 4 5 5 5 5 5 5
29 30 35 39 29 17 13 8 19 27 16 13 20 17 10 4 1 4 4 2 4 3 2 3 3 6 11 10 4 1 2 2 0 5 5 2 3 3 3 2 4 5 3 4 5 2 2 2 0 1 1 2 5 7 6 3 3 4 4 6 7 3 1 2 2 0 4 3 1 3 3 3 4 2 1 0 1 1 5 8 8 7 7 5 5 4 4 4
30 32 37 35 23 18 9 3 20 25 14 16 19 8 5 4 2 5 4 2 4 4 4 4 4 8 12 8 5 3 3 3 0 3 6 4 3 4 3 3 5 4 4 5 3 2 3 2 1 2 1 2 4 7 5 2 1 1 5 8 6 3 2 3 2 2 4 1 2 2 2 3 6 4 1 1 3 3 4 7 9 9 8 6 5 4 3 3
32 33 37 30 19 17 8 5 21 23 16 19 13 1 2 6 6 5 5 5 3 2 4 4 3 7 11 7 4 3 2 2 2 1 2 2 5 4 1 0 2 2 4 5 4 4 3 1 1 3 2 3 3 5 5 4 5 5 7 7 5 4 4 5 3 1 3 0 2 2 1 2 4 4 4 5 5 4 3 4 3 5 6 5 4 3 3 4
32 32 33 27 17 14 9 10 20 21 18 16 6 2 5 7 5 4 5 4 1 2 3 5 7 8 8 5 4 4 2 2 2 2 2 3 5 5 3 2 1 2 3 4 3 4 4 3 3 3 2 2 2 2 1 5 5 3 1 1 3 3 3 4 2 1 1 2 2 1 1 3 2 1 1 1 3 1 1 1 1 0 1 1 1 1 2 4
31 30 30 25 16 11 10 14 19 21 18 9 3 6 8 8 5 4 7 5 1 3 4 6 10 9 3 2 0 3 1 1 2 2 3 5 6 7 7 6 4 2 5 6 3 2 2 1 1 1 1 1 2 2 2 5 5 1 1 1 2 1 2 2 1 1 1 1 2 3 3 3 1 0 1 1 1 0 0 0 1 2 2 2 3 3 3 4
29 28 25 20 14 10 12 16 19 20 14 5 5 7 6 4 3 4 7 5 4 8 9 7 7 6 3 1 0 2 1 2 4 2 3 3 2 5 7 5 5 5 4 5 3 2 2 1 2 1 0 1 1 2 2 1 3 2 2 3 2 1 4 4 1 2 1 3 2 3 3 2 2 3 2 2 2 2 2 3 4 5 5 5 5 5 4 4
25 22 16 12 11 13 16 18 18 16 7 3 8 7 2 1 1 2 5 6 8 12 12 8 3 3 5 4 4 6 3 3 3 3 3 3 2 5 6 2 4 7 4 1 1 2 3 3 2 1 2 2 1 1 2 2 0 2 3 5 3 1 1 2 1 2 0 3 1 2 4 3 3 3 3 4 6 5 5 7 7 7 7 7 6 5 5 4
20 15 8 7 12 16 17 18 16 10 2 3 7 3 1 1 1 1 2 5 9 11 10 7 2 2 5 6 6 7 7 5 4 3 4 4 3 6 8 4 3 6 4 0 1 1 1 3 2 1 1 2 1 2 3 2 2 1 1 3 3 2 2 2 2 2 2 3 2 2 2 3 5 4 4 8 11 9 9 9 9 10 10 9 8 7 6 5
13 10 4 5 12 16 17 17 12 5 2 6 7 3 1 2 1 0 1 2 6 7 8 6 2 1 4 6 7 8 8 7 7 5 4 4 3 4 8 6 2 4 3 1 2 1 1 1 2 1 1 0 0 3 5 4 2 2 2 2 0 1 2 2 2 1 3 3 2 1 1 3 6 5 7 12 14 13 12 11 11 13 12 10 8 8 7 6
4 5 3 4 12 17 18 15 7 3 4 5 5 3 1 2 2 1 2 0 2 2 4 5 3 4 4 4 6 7 6 6 8 6 4 5 4 2 5 6 5 4 2 2 1 2 1 1 2 2 1 2 3 2 4 5 4 3 4 5 3 1 1 1 1 1 1 3 2 2 2 3 2 3 6 8 9 11 13 12 11 12 12 10 8 8 7 6
0 3 2 3 12 19 17 11 4 4 4 2 1 2 1 2 4 2 2 1 1 1 1 3 4 5 5 4 5 7 4 4 8 6 2 5 6 3 5 7 8 8 4 2 2 2 1 1 4 4 2 3 2 1 2 2 1 2 3 5 5 4 3 3 4 1 1 1 1 1 3 3 1 1 2 1 3 7 11 13 12 10 11 10 7 7 7 6
1 3 2 1 12 18 12 6 3 2 2 2 2 3 2 2 4 3 0 1 2 1 2 3 2 3 4 4 4 7 6 4 7 7 3 5 8 4 3 5 8 10 8 4 2 1 1 3 4 3 2 1 2 2 1 2 2 1 1 1 3 3 4 5 5 3 3 1 1 1 2 3 1 1 2 1 1 2 4 9 12 10 9 9 7 7 6 5
2 4 3 3 9 14 8 5 4 2 1 1 2 3 2 2 3 2 2 1 1 1 1 2 2 1 2 2 4 8 10 5 6 9 4 4 4 1 1 6 9 10 7 4 2 2 2 3 4 3 1 0 1 1 1 1 1 2 3 2 2 3 2 1 1 2 4 4 3 2 4 3 2 1 2 2 1 1 1 5 11 11 8 8 8 7 6 5
2 3 2 5 5 9 7 6 7 6 4 2 3 3 2 1 2 3 3 2 1 2 2 2 1 1 2 3 3 8 11 5 5 8 3 3 3 2 0 8 11 10 7 3 5 6 3 3 5 4 3 2 1 2 2 2 3 4 3 2 3 3 4 4 1 1 2 5 5 5 6 3 2 1 1 1 2 4 4 5 8 9 8 8 7 6 6 7
2 2 0 4 6 2 4 3 4 7 7 6 5 5 3 2 1 1 2 3 1 1 3 2 1 2 3 3 3 4 8 3 2 5 2 1 2 3 2 4 8 7 3 1 4 7 4 3 5 6 6 5 6 7 5 5 4 2 2 5 6 7 7 4 2 2 4 4 5 7 7 1 1 1 2 3 5 7 8 6 4 5 6 7 7 7 7 7
1 1 1 1 5 2 1 2 1 6 8 8 6 4 3 4 2 1 1 2 1 1 3 2 1 3 3 4 5 5 7 1 2 4 5 3 2 1 2 1 2 2 2 2 7 7 2 2 5 8 9 9 9 8 4 5 6 6 8 8 8 9 8 4 3 4 5 3 4 9 7 2 3 3 3 5 9 10 9 9 8 7 7 7 7 7 7 6
1 1 1 2 1 1 2 1 2 5 7 8 6 4 4 6 4 1 2 1 1 2 3 2 2 2 4 7 5 4 6 2 2 3 5 3 1 1 2 1 2 1 3 2 6 5 2 4 8 10 11 7 3 3 4 6 8 11 11 9 9 9 10 8 8 9 5 5 7 10 6 7 7 6 6 7 9 9 10 12 13 11 9 7 6 6 6 6
0 1 1 1 1 2 2 2 4 6 9 8 4 4 7 7 6 4 1 1 0 1 1 1 1 2 6 10 7 4 5 3 1 2 3 2 3 2 2 2 1 1 2 2 2 2 4 7 7 9 11 5 3 2 4 6 6 7 8 10 11 11 12 14 15 12 8 7 12 7 8 12 10 7 9 10 11 13 14 13 11 9 8 7 7 8 8 8
0 2 1 2 2 2 3 4 5 7 11 9 3 4 8 10 8 4 2 2 1 1 0 3 4 3 4 7 5 5 7 6 4 4 3 3 3 3 2 2 1 1 2 3 2 1 3 5 4 7 10 5 3 1 2 3 4 4 6 10 12 12 14 17 17 14 11 13 11 3 7 13 9 7 9 10 9 8 7 6 6 8 9 8 9 10 10 9
0 1 0 1 2 3 3 4 5 5 7 7 5 5 6 9 8 4 1 2 4 3 2 3 5 4 3 4 3 4 7 7 6 6 7 6 4 3 4 3 3 2 1 3 3 1 3 3 4 5 6 3 3 2 1 2 2 4 4 6 10 12 14 16 17 15 12 13 8 3 4 10 4 4 4 4 3 3 5 7 9 10 10 10 10 11 10 9
2 1 1 2 2 2 2 3 3 5 6 7 7 6 8 10 9 5 2 1 1 4 4 6 8 4 2 3 3 3 5 4 4 7 10 10 6 5 3 3 6 7 4 4 4 2 3 2 2 4 5 4 1 2 3 4 2 1 3 7 12 13 14 13 11 9 11 14 8 3 6 8 4 5 2 1 4 6 8 11 10 9 9 10 11 10 10 10
2 2 2 2 2 2 1 3 3 4 4 4 4 5 6 7 6 6 4 1 2 2 3 7 9 4 2 5 4 2 4 4 3 3 5 4 3 3 2 2 7 9 8 6 3 2 4 4 3 4 8 3 2 1 5 6 2 4 7 12 16 15 12 8 3 4 11 13 9 7 9 5 6 8 6 4 6 9 10 10 9 8 9 8 9 9 9 10
Wind_Direction
185 183 183 185 187 192 195 195 187 182 185 183 182 185 187 185 181 184 184 187 188 186 190 191 191 192 195 200 205 211 216 220 223 214 216 234 236 238 240 238 229 218 221 205 184 174 169 172 177 173 169 163 0 157 137 41 30 231 197 194 182 161 171 167 164 168 75 130 157 169 194 197 150 156 172 171 177 136 152 176 172 173 198 206 1 38 140 152
185 186 185 184 185 192 193 189 185 181 182 181 181 183 184 183 179 181 181 186 186 182 188 189 190 192 196 198 199 206 213 219 225 229 233 238 242 244 238 233 223 206 204 198 185 178 178 184 181 183 184 169 152 180 168 12 315 208 154 205 186 144 115 140 145 142 62 118 147 161 191 211 155 145 168 200 168 158 192 185 192 212 190 177 204 158 155 163
185 185 185 183 183 188 188 185 181 177 178 179 181 181 181 181 180 180 180 184 183 180 184 187 189 191 194 194 192 199 206 218 234 246 245 241 240 243 234 226 219 204 201 200 191 186 191 187 181 190 191 153 130 175 157 84 291 166 209 203 139 126 92 79 142 129 38 91 146 154 167 201 123 120 170 207 169 185 212 196 190 218 208 179 156 156 167 174
184 184 184 183 181 184 187 183 178 177 177 178 180 181 181 179 180 179 177 181 180 178 181 182 185 186 187 186 186 186 186 226 250 244 249 241 235 234 225 216 209 203 205 206 198 194 194 177 179 207 194 136 101 167 145 90 257 148 222 212 92 125 114 104 210 48 358 299 157 143 151 175 132 133 185 188 184 209 224 220 216 222 201 169 152 159 175 183
183 182 182 181 179 182 184 177 176 179 176 176 177 179 180 178 178 173 173 179 179 177 179 178 179 180 179 177 176 172 163 265 257 227 232 229 225 221 216 208 200 199 203 207 203 197 192 170 180 224 210 140 138 159 137 69 250 138 66 19 64 246 111 90 22 80 200 303 153 146 155 154 128 163 189 201 218 224 140 202 232 247 146 150 154 162 176 189
181 178 178 178 175 174 175 171 174 175 172 175 175 175 179 177 175 173 174 178 178 177 177 177 177 173 172 172 173 172 173 208 274 233 217 209 205 205 205 199 193 194 199 204 200 185 183 180 192 205 157 132 152 152 132 100 266 170 126 85 89 9 67 76 34 132 178 175 158 153 141 128 151 181 138 221 236 61 68 54 5 308 59 138 148 160 178 191
177 173 173 173 171 169 170 171 172 170 170 172 173 176 180 179 176 173 174 178 178 177 176 175 172 168 168 168 168 178 217 232 300 331 222 195 186 190 193 189 188 189 194 195 186 177 186 191 200 200 141 127 158 141 131 131 274 225 133 134 125 34 47 37 42 134 180 177 137 122 131 144 187 180 88 238 238 104 89 30 351 307 135 143 152 167 183 192
174 172 171 171 172 172 170 170 170 168 169 170 172 177 180 183 179 173 175 179 179 177 176 172 168 167 166 162 157 173 241 239 294 357 224 189 176 181 184 182 185 187 190 191 187 182 189 191 197 206 145 132 152 138 147 147 161 220 133 140 138 73 71 62 116 124 119 126 83 186 165 135 192 104 201 239 232 84 21 8 4 155 144 160 169 176 184 193
173 172 171 173 175 174 171 170 170 168 169 171 173 175 178 183 179 174 175 178 177 178 174 168 166 165 164 161 147 165 212 222 246 73 195 188 175 177 180 180 185 186 187 195 196 184 185 190 199 213 143 121 151 140 167 181 175 135 123 134 131 104 84 91 108 94 95 94 140 193 145 79 91 23 257 228 48 2 330 21 55 174 167 175 179 184 188 194
173 172 172 174 177 176 174 173 172 169 170 172 172 175 177 177 175 173 173 175 176 176 170 166 166 165 165 163 155 182 212 214 219 195 178 185 178 177 180 182 184 183 182 193 201 191 194 195 191 200 120 106 155 131 173 198 131 110 117 109 104 109 95 95 111 83 97 89 342 220 141 86 109 259 248 122 39 344 277 121 342 215 191 183 180 186 192 198
172 174 174 176 178 178 178 175 172 169 169 170 171 174 173 171 172 171 171 173 174 172 167 165 167 169 170 172 172 190 200 192 199 185 174 183 186 182 182 185 184 183 179 188 206 203 212 206 178 193 135 136 136 105 68 142 110 119 127 107 87 107 98 60 106 86 306 103 1 281 147 102 120 228 229 88 22 340 234 177 122 242 222 195 184 185 193 201
172 173 175 178 178 176 177 174 169 168 168 169 169 169 168 168 167 166 168 171 172 170 165 166 170 171 171 186 198 189 167 178 183 175 173 180 188 186 185 188 186 187 185 192 214 211 218 200 178 160 100 154 139 129 130 115 115 126 143 118 111 142 104 41 67 47 316 109 8 306 208 213 193 218 175 76 334 340 243 205 176 228 240 220 200 195 200 202
170 171 175 177 175 173 173 171 167 167 168 167 166 165 165 167 166 165 166 168 171 168 166 169 170 171 176 202 203 183 167 172 173 173 173 175 184 188 190 189 184 190 196 208 214 211 214 198 176 105 85 142 130 151 124 97 126 133 166 120 133 176 137 40 19 333 293 107 342 264 246 227 187 223 64 55 314 288 237 197 185 218 218 224 212 211 212 204
168 170 173 174 172 171 171 170 166 165 168 166 164 164 166 167 165 163 162 166 168 166 167 168 167 175 205 208 176 180 172 168 173 174 171 171 173 175 184 182 181 192 202 216 213 201 196 170 133 107 74 76 120 146 117 88 343 130 143 182 149 194 163 70 32 316 202 130 334 242 247 261 162 175 76 26 316 251 257 221 199 222 222 229 214 221 224 212
167 170 173 173 171 171 171 169 164 163 165 163 163 165 165 163 159 158 159 162 161 163 164 164 168 178 218 206 172 170 168 168 175 176 174 170 162 158 170 172 177 188 186 193 177 164 165 143 114 111 84 54 137 137 115 97 46 109 165 173 169 215 165 87 55 353 143 118 0 244 246 266 257 102 93 14 4 170 273 271 258 240 233 238 228 231 230 223
168 170 173 173 171 171 170 168 164 163 162 161 165 164 159 156 152 149 152 154 153 159 157 158 180 196 201 168 150 158 170 180 177 176 174 169 164 156 149 147 147 151 146 140 136 133 131 114 84 75 101 142 156 135 124 132 134 210 229 167 162 201 181 132 102 23 5 119 209 252 268 280 40 72 112 194 340 2 308 281 272 251 241 241 236 238 239 237
167 171 173 172 171 170 168 168 164 161 161 162 164 161 155 148 142 141 144 147 144 152 151 154 194 204 230 124 142 165 178 175 172 173 173 170 169 155 140 126 120 130 126 123 130 124 74 66 86 237 97 145 165 142 146 170 171 176 264 139 149 196 185 179 145 58 353 236 209 197 262 261 222 157 220 205 276 311 290 277 275 270 265 247 238 246 243 242
167 170 171 170 170 168 167 168 164 160 162 163 161 154 144 135 134 135 133 132 128 134 145 193 200 201 213 171 167 168 157 153 160 166 172 171 165 156 142 122 134 135 130 128 135 138 49 40 185 158 128 156 171 169 174 180 176 174 178 165 148 195 222 221 148 82 349 219 218 198 238 256 255 258 263 224 152 273 274 275 278 271 268 259 256 259 250 248
167 169 170 170 170 169 167 168 166 161 162 160 150 137 124 119 119 122 125 131 131 122 160 194 189 192 174 167 140 115 132 139 147 153 162 164 159 152 130 124 138 137 149 156 161 190 131 128 166 163 162 178 182 189 188 166 168 168 167 160 150 164 209 240 91 47 345 199 217 221 235 261 265 266 271 249 146 258 270 268 265 258 259 255 249 257 259 258
165 168 170 171 170 170 167 168 168 164 162 155 145 135 127 130 124 127 144 161 188 303 217 172 162 107 94 122 124 122 122 122 123 140 155 158 151 138 100 111 134 143 166 163 149 170 220 165 179 183 174 176 172 138 93 104 141 148 144 136 144 162 154 100 86 61 1 228 215 229 256 270 271 273 274 259 143 258 266 262 260 253 251 250 251 261 262 260
165 168 172 173 172 171 169 169 168 166 163 155 153 150 150 157 148 155 159 141 287 294 276 127 106 97 92 119 139 134 118 99 77 126 156 161 157 149 130 169 164 165 169 120 116 120 231 195 183 166 145 140 130 103 97 100 115 136 150 154 157 202 121 78 80 75 25 250 182 111 272 267 265 269 269 254 209 251 259 261 265 265 263 262 262 266 269 272
163 167 171 172 172 171 168 168 168 167 165 162 169 213 183 149 121 141 142 104 129 305 61 111 91 73 75 122 146 141 110 109 105 131 164 169 179 172 157 177 173 162 126 142 137 138 204 204 151 109 103 98 94 103 104 93 108 129 142 158 168 170 126 102 112 79 32 262 192 114 269 271 265 265 269 270 262 260 269 268 272 280 279 278 275 277 284 287
161 164 167 167 167 167 166 167 167 168 171 173 189 235 162 142 134 141 139 83 112 17 50 105 87 99 97 134 165 146 118 127 150 174 185 174 183 180 152 163 162 137 157 182 170 167 187 204 98 127 141 123 107 113 114 103 111 122 132 157 160 148 154 165 156 134 47 2 328 283 271 277 267 259 259 285 279 276 287 264 262 269 268 278 286 289 288 286
160 161 164 163 162 163 164 163 164 171 177 184 204 202 151 142 145 146 133 78 118 16 37 46 52 133 124 141 171 153 119 96 151 156 183 179 156 146 157 148 137 142 173 189 175 164 143 7 71 147 163 142 133 145 149 150 146 89 190 167 141 164 190 21 120 137 130 146 348 312 266 260 252 244 183 133 260 266 295 246 214 241 249 271 283 281 273 275
158 158 162 162 160 160 158 158 165 175 179 193 212 198 153 148 154 153 121 97 119 24 325 82 31 157 132 123 150 147 120 87 54 116 177 177 147 143 145 110 151 163 164 150 156 161 81 5 174 144 141 141 142 158 179 181 162 180 222 198 162 169 154 103 128 149 182 190 80 340 260 222 125 238 186 98 330 120 38 49 82 47 357 294 304 5 342 275
156 157 160 161 160 157 154 158 173 173 176 207 204 183 163 159 161 165 133 72 144 139 167 147 62 161 146 101 113 143 141 126 12 21 95 150 145 138 140 119 0 154 153 139 144 160 92 58 242 148 145 142 149 168 188 195 167 172 202 146 140 147 134 136 155 172 198 187 82 338 263 235 242 217 154 22 0 122 97 68 60 35 31 28 30 29 18 35
157 159 161 162 161 157 154 159 168 165 169 211 197 178 174 166 161 172 136 81 178 164 134 133 320 162 152 358 9 158 160 138 113 75 49 115 136 63 156 162 137 125 153 150 152 142 116 130 178 144 145 148 163 176 186 195 177 160 158 133 139 136 136 148 156 169 26 59 144 58 324 279 260 194 121 316 163 127 109 83 59 36 40 34 37 35 25 26
159 162 163 164 162 161 163 154 159 171 181 186 185 177 171 161 154 156 133 145 171 139 130 153 86 128 135 18 49 89 135 107 130 137 13 29 98 331 161 161 141 120 96 203 181 156 113 162 173 154 155 167 177 170 166 182 164 105 142 129 126 115 118 133 131 115 61 275 210 116 18 265 245 183 132 231 176 154 136 92 61 38 39 38 49 45 37 38
161 165 165 164 164 166 174 157 162 182 183 164 169 169 159 154 146 95 177 185 147 104 82 118 128 122 126 96 58 39 52 35 87 142 21 43 64 23 133 145 124 113 66 2 137 74 2 199 188 159 168 165 112 27 357 277 78 138 153 111 91 80 80 80 89 110 105 247 220 104 13 261 247 210 168 200 217 188 160 104 66 56 51 46 54 51 46 54
165 168 167 164 166 167 154 160 179 182 177 165 161 158 151 151 150 142 187 189 141 116 72 134 156 147 149 137 70 16 89 44 36 111 79 71 50 33 72 110 106 110 69 40 68 54 332 352 334 352 89 131 106 63 20 352 102 142 154 111 94 75 63 66 44 78 191 239 208 57 350 286 260 241 182 207 251 181 151 132 112 98 88 73 64 56 51 56
168 170 168 166 169 168 145 164 193 181 175 168 157 155 155 134 86 164 169 168 130 127 154 159 150 149 159 154 127 113 98 57 199 147 147 149 62 82 138 147 109 105 108 88 71 44 89 109 127 50 49 136 120 79 45 39 118 146 162 129 112 84 84 120 70 130 225 224 88 32 333 272 239 242 83 0 294 168 145 137 133 122 103 87 75 63 52 51
169 168 168 168 170 171 158 188 187 179 177 166 156 165 172 126 177 181 148 150 156 161 178 170 170 166 163 147 117 134 121 96 205 160 149 148 143 152 167 181 157 140 165 157 127 98 101 96 58 63 271 229 140 103 75 51 248 215 157 151 147 129 160 195 178 204 232 234 47 9 329 252 245 258 272 179 160 158 136 122 126 125 116 109 93 73 60 51
167 166 168 170 170 177 195 187 175 178 176 165 159 192 162 156 188 175 143 169 165 135 141 124 142 160 151 139 135 142 102 108 166 152 123 144 162 169 339 277 158 135 163 154 139 149 133 115 174 137 170 243 194 140 141 179 203 185 162 165 168 146 172 197 174 232 262 179 55 349 320 240 254 266 238 193 153 144 123 94 96 110 112 109 92 69 68 69
166 168 170 172 172 183 203 176 172 177 170 165 166 135 154 180 181 130 146 182 35 67 108 106 123 140 141 140 162 162 87 51 160 130 113 155 167 182 200 203 226 40 106 133 154 169 169 178 181 159 147 189 209 221 144 136 155 182 157 154 171 160 189 195 176 215 213 102 100 150 234 220 203 46 287 156 99 77 63 47 349 0 86 80 90 106 100 92
166 170 173 178 183 189 191 175 172 173 167 165 171 164 178 188 172 147 160 164 101 109 96 110 132 136 127 53 75 195 102 73 172 123 142 173 178 187 188 187 204 190 137 155 173 162 171 172 70 37 278 185 177 295 358 104 128 165 7 74 195 182 121 117 72 95 103 83 145 181 242 258 244 303 319 6 47 278 163 119 198 174 160 163 143 132 118 104
164 169 173 180 190 190 184 177 171 170 171 168 170 183 201 186 164 176 154 131 141 138 118 123 139 137 142 91 172 230 347 99 164 168 171 192 211 195 191 180 185 202 182 157 152 161 161 102 10 4 117 45 348 302 343 98 150 148 165 179 186 60 100 114 112 60 0 253 182 171 239 258 245 231 184 143 174 170 153 177 177 155 150 156 146 137 132 117
160 163 164 169 178 180 178 174 168 168 178 197 184 188 199 120 83 163 137 117 135 139 133 140 165 162 157 155 177 186 163 120 164 199 169 170 225 192 192 211 178 192 215 140 148 215 159 116 22 354 103 71 313 236 60 20 70 141 173 168 138 78 77 118 156 101 180 247 189 170 233 232 203 205 130 143 179 179 174 177 163 151 159 162 156 150 141 125
148 144 134 137 160 169 171 169 166 161 164 203 188 179 88 124 48 132 146 128 137 148 153 155 171 188 165 166 172 172 170 161 168 183 159 173 219 181 174 192 187 185 200 134 155 217 125 117 72 358 107 79 321 212 137 72 14 17 169 143 131 201 200 165 175 163 183 228 227 193 241 262 220 197 152 174 187 182 175 170 159 163 171 168 160 154 145 135
140 135 118 131 152 159 163 163 159 147 174 199 189 176 127 123 75 195 204 133 132 151 165 161 147 183 176 171 159 160 179 175 159 167 174 186 213 185 175 180 176 180 173 134 171 151 100 140 125 78 318 18 277 225 192 165 94 50 114 132 356 290 212 179 161 180 204 209 221 192 172 235 225 203 185 190 188 177 170 169 169 171 172 169 161 156 152 147
143 138 130 141 150 152 151 148 144 161 194 205 191 165 121 109 119 277 300 138 125 153 172 167 158 153 157 159 151 160 183 174 163 179 197 181 185 205 192 180 154 152 119 59 118 136 102 188 142 107 344 213 186 218 215 182 150 150 165 169 177 126 33 236 146 68 248 201 196 224 236 232 215 201 203 194 179 172 170 169 171 168 167 167 161 155 150 146
337 123 125 145 150 149 145 143 159 192 190 200 140 135 139 146 143 129 347 13 65 354 133 136 144 151 145 147 159 163 162 159 173 190 200 186 198 223 207 185 157 144 131 104 143 163 161 121 129 136 177 196 189 338 302 275 176 173 182 185 182 153 137 189 193 148 16 245 186 205 266 263 138 155 225 190 162 177 174 168 164 162 165 165 157 154 150 144
40 118 119 170 161 156 150 156 176 162 170 174 120 119 134 135 132 136 148 43 56 36 64 88 103 135 143 145 150 155 153 154 178 188 202 207 208 218 215 177 151 152 155 142 139 157 95 96 112 129 176 219 320 336 280 294 312 328 291 232 181 171 183 200 205 172 128 124 101 88 281 277 88 108 232 233 234 210 174 159 156 158 165 165 159 156 147 140
58 100 74 63 163 169 161 163 179 161 161 176 79 61 80 121 122 132 174 164 77 88 88 101 123 130 153 146 142 160 165 166 185 188 196 206 197 235 225 153 144 155 160 137 143 159 108 107 112 95 80 20 319 302 116 354 282 237 239 209 172 198 200 143 208 159 147 167 159 161 251 253 123 114 240 254 279 282 217 161 158 162 168 168 167 159 148 147
70 93 49 44 118 173 179 178 186 178 158 135 102 89 66 74 113 134 169 175 155 150 124 115 145 133 147 144 139 168 173 174 201 197 189 177 174 12 355 166 158 163 174 176 172 174 181 153 129 119 124 135 203 203 192 208 213 224 215 163 170 151 94 81 110 141 193 200 175 190 239 242 123 103 170 196 179 168 181 181 166 167 171 167 164 158 154 156
87 91 275 23 45 131 186 197 188 165 151 139 132 135 122 71 52 106 150 131 111 162 125 115 157 89 114 128 94 157 181 165 181 191 160 149 172 24 14 189 181 176 185 9 140 157 179 173 155 158 159 172 195 201 205 190 179 212 191 172 187 171 151 158 143 148 221 200 166 205 235 242 92 133 140 149 164 166 169 177 176 179 180 170 163 163 164 162
126 93 185 23 23 42 85 351 163 157 157 149 139 150 147 121 95 2 54 109 150 128 82 88 155 89 108 146 121 158 191 157 41 174 166 153 156 18 354 211 179 170 17 61 145 147 135 178 190 196 196 196 198 200 186 128 141 190 195 179 183 181 175 161 123 191 210 148 173 224 235 239 211 195 171 170 176 175 170 172 183 193 192 180 167 164 163 159
196 102 132 127 57 91 55 357 166 156 165 164 154 160 149 129 128 102 24 19 180 149 64 51 156 143 154 161 145 163 181 147 54 154 152 140 125 5 346 91 124 17 15 122 164 134 108 196 204 210 219 219 182 164 158 141 173 199 191 170 169 174 173 173 199 214 165 125 228 230 211 229 223 188 195 198 181 180 182 182 187 189 185 175 156 152 158 159
104 90 56 15 102 148 149 168 162 155 167 171 152 144 149 144 150 153 106 44 104 173 83 66 205 200 169 164 154 141 146 131 119 148 131 135 143 109 38 68 137 332 34 128 176 100 154 204 203 202 217 221 68 96 177 168 182 193 179 173 170 169 175 189 211 213 160 186 239 219 174 216 217 178 201 205 185 189 192 187 181 172 167 159 153 163 170 168
109 108 15 355 53 103 118 125 132 150 163 163 149 160 168 164 161 154 108 110 142 245 169 154 184 191 169 165 152 149 165 170 180 189 167 151 152 137 125 127 153 0 76 143 168 110 181 201 175 185 212 208 82 54 205 161 163 173 179 180 171 171 185 197 213 215 194 215 237 161 177 223 212 172 205 210 194 192 174 156 160 165 168 169 174 181 178 171
111 129 64 66 80 65 84 123 138 148 156 164 172 174 175 170 162 148 96 134 159 182 184 157 153 138 147 160 142 169 188 178 174 186 169 152 165 181 176 178 156 119 122 157 160 201 219 195 132 153 206 207 92 57 61 109 167 169 165 179 177 182 195 206 218 215 210 228 232 120 237 249 210 156 211 203 166 136 132 163 183 184 180 179 184 186 178 173
68 28 15 100 88 56 94 136 146 151 162 181 185 175 180 181 167 139 100 9 153 165 166 151 138 113 100 139 137 183 195 174 174 185 171 164 175 180 184 191 158 152 166 171 161 173 191 185 96 131 198 215 79 103 125 91 73 136 175 193 190 194 201 207 216 206 203 218 213 170 257 254 170 148 195 155 158 179 186 188 189 188 187 187 189 184 177 177
77 24 14 81 75 27 91 126 154 172 173 179 172 162 174 177 161 148 147 11 10 127 146 151 144 120 116 153 166 201 177 146 128 144 151 144 122 108 99 153 156 158 167 168 162 162 169 164 131 169 199 207 32 113 137 108 109 227 223 205 196 201 205 194 200 214 207 210 202 201 234 232 140 157 187 185 188 203 206 195 188 193 193 190 191 183 176 178
Height
746 748 751 754 755 758 760 762 764 766 769 771 774 776 778 780 782 784 786 788 789 790 793 796 798 802 804 807 810 812 815 816 816 815 812 807 807 808 808 808 809 810 812 813 813 814 815 816 816 817 817 817 818 819 821 822 823 824 828 834 836 837 836 834 835 835 832 833 838 843 843 840 842 844 844 844 843 843 845 845 846 847 848 848 850 851 851 853
744 747 750 752 754 757 759 761 763 765 768 771 772 775 777 779 781 783 785 787 788 789 792 794 798 800 803 806 809 811 814 815 815 811 805 804 806 807 807 808 809 809 811 812 812 812 814 815 816 816 816 817 820 820 821 823 824 827 831 834 834 833 832 831 831 832 833 832 835 840 842 840 839 841 843 844 844 844 844 844 845 845 846 847 850 851 852 853
743 746 748 750 753 755 758 760 762 764 767 769 772 774 776 778 780 782 784 786 787 788 790 793 796 799 802 805 808 812 814 815 813 806 800 803 805 805 806 806 807 809 810 811 811 811 812 813 815 816 816 817 819 819 821 823 825 828 831 831 831 830 831 834 834 834 836 834 835 839 843 842 840 841 843 843 844 845 843 841 843 844 843 844 848 851 853 854
741 744 747 749 752 755 757 759 761 763 766 769 771 773 775 776 779 780 782 785 786 788 789 792 795 798 802 804 808 811 812 815 808 799 798 801 802 803 805 805 806 808 809 811 811 811 812 813 815 816 815 818 820 819 821 824 826 828 830 830 832 832 832 836 837 838 840 838 836 838 842 842 841 842 842 842 844 843 839 836 837 838 838 841 846 849 852 853
740 743 745 748 751 754 756 758 760 762 765 768 770 772 774 775 777 779 782 784 785 787 788 791 794 797 801 803 807 807 811 816 804 793 796 797 799 802 803 804 805 806 809 810 811 812 813 814 815 816 815 819 821 819 822 825 825 828 833 834 835 835 833 837 841 842 843 841 838 839 840 839 840 842 841 841 841 838 835 834 835 835 836 839 844 848 851 853
739 741 744 747 750 753 755 757 759 762 764 767 769 771 773 774 776 778 780 783 785 786 788 790 793 797 800 802 805 805 808 810 798 792 795 794 797 800 801 803 804 806 808 810 811 812 813 813 815 816 815 818 820 820 823 827 825 827 834 837 838 838 836 840 843 844 845 840 839 839 837 838 840 841 842 842 837 835 835 837 837 837 838 839 842 846 849 850
737 740 743 746 749 752 754 757 759 761 764 766 768 770 772 774 775 777 779 782 784 786 787 789 793 796 798 801 804 805 804 800 793 793 794 793 796 798 800 802 802 806 807 809 811 811 812 813 815 814 814 819 820 820 824 826 825 825 831 836 839 841 839 843 845 845 845 840 840 841 839 840 840 840 845 842 835 835 838 839 840 839 839 840 841 844 846 847
736 739 742 745 748 751 754 756 758 761 763 766 768 770 771 773 775 776 778 780 782 784 786 789 792 794 797 799 801 805 804 797 793 794 794 794 796 797 800 801 802 805 806 808 809 809 811 812 814 812 813 818 817 821 824 825 826 825 830 836 839 841 841 845 846 845 845 842 844 842 840 842 842 844 845 839 834 836 838 839 841 840 840 840 841 842 844 845
735 738 741 744 747 750 753 755 757 760 763 765 767 769 771 773 774 776 777 779 781 783 785 788 791 793 796 796 798 803 800 794 794 794 794 795 796 797 799 800 802 804 805 807 808 808 810 810 811 809 812 817 816 820 823 823 826 826 831 835 838 840 841 844 843 844 844 843 844 841 841 844 846 847 841 835 836 838 839 840 841 840 840 840 840 841 842 844
734 737 740 743 746 749 752 754 757 759 762 765 767 769 771 772 774 775 776 778 780 782 784 787 789 791 794 794 797 801 795 792 794 794 794 795 796 798 799 800 801 803 805 807 808 808 808 807 808 806 809 815 817 823 824 823 825 827 833 835 837 840 842 842 841 844 844 843 844 840 841 844 846 847 837 834 839 839 838 839 841 840 838 839 839 840 841 843
733 736 739 743 746 748 750 754 756 759 762 764 766 768 770 772 773 774 776 778 780 781 784 786 788 790 793 792 795 797 792 792 794 793 794 795 797 798 799 800 800 802 804 806 807 807 806 805 807 806 808 813 819 825 826 825 826 828 831 834 840 840 840 842 840 843 842 842 845 841 842 845 847 845 835 835 840 840 838 838 841 841 839 838 838 839 840 841
731 735 739 742 745 747 750 753 755 758 761 763 766 768 770 772 773 774 776 778 780 782 784 786 788 790 793 793 793 792 791 792 793 793 794 794 797 798 799 800 800 801 803 805 806 805 806 806 805 807 809 811 819 826 826 828 829 830 829 832 840 838 838 843 841 843 842 841 846 843 842 842 842 839 833 837 840 839 838 836 838 840 840 840 838 839 839 840
730 734 738 741 744 746 749 752 754 757 760 762 765 767 769 771 773 774 775 778 780 782 784 786 788 790 793 794 792 790 791 792 792 793 793 794 797 798 799 800 800 802 803 804 805 805 806 806 805 807 808 811 821 825 824 829 830 831 831 832 838 837 839 843 844 844 841 843 846 844 843 836 833 834 833 839 840 838 836 834 836 837 838 839 838 838 838 838
728 733 737 740 743 745 748 751 754 756 759 762 765 767 769 771 772 773 775 778 780 783 784 785 788 791 793 792 790 790 791 791 792 792 793 794 796 798 799 800 800 802 803 804 804 804 806 807 805 807 811 813 820 823 824 830 831 831 834 835 839 840 840 843 847 844 839 843 843 842 844 834 829 833 836 840 839 837 834 832 833 834 836 836 836 837 836 836
727 732 736 739 742 745 748 750 753 756 759 762 764 766 769 770 772 773 775 778 780 783 784 785 788 791 792 790 789 790 790 791 792 792 792 794 795 798 799 799 801 802 803 804 803 804 807 806 806 810 817 817 817 822 827 832 834 834 836 841 846 842 839 843 849 848 842 843 841 841 843 833 828 832 837 841 838 836 833 831 832 833 834 834 834 834 833 833
726 731 735 738 741 744 747 750 752 755 758 761 763 766 768 770 771 773 775 778 780 782 783 786 788 789 790 790 789 789 790 791 790 791 792 793 795 796 798 800 801 802 803 804 804 806 806 807 812 816 818 818 816 818 827 835 838 838 835 839 847 843 839 841 847 851 849 845 841 842 841 832 830 833 836 840 838 836 834 831 831 831 833 833 832 833 831 831
725 730 734 738 741 743 746 749 752 755 758 760 763 765 768 769 771 773 776 778 780 782 783 786 788 788 789 789 789 788 788 788 789 791 792 794 795 796 798 800 802 803 804 804 805 806 806 810 818 819 817 818 816 815 829 842 842 843 840 841 849 848 842 840 844 850 851 846 842 843 843 833 830 832 832 835 837 837 834 830 829 829 830 830 831 831 830 829
724 729 734 737 740 743 746 749 751 754 757 760 762 765 767 769 771 773 776 778 780 784 786 787 788 789 789 787 787 785 784 786 788 790 792 794 795 796 798 799 801 803 804 806 807 807 809 814 817 817 820 823 818 814 826 836 834 838 841 840 847 851 847 842 842 849 851 846 844 845 845 835 829 829 828 830 835 835 832 829 829 829 828 828 829 829 828 827
723 729 733 737 740 742 745 748 751 753 756 759 761 765 767 769 773 775 777 778 779 782 784 782 782 784 783 780 781 783 783 786 788 790 793 794 795 797 798 799 801 802 806 808 809 809 810 815 818 820 823 825 818 812 815 820 820 828 833 832 837 842 845 846 846 852 854 847 845 844 842 835 830 829 827 827 832 834 830 829 829 828 827 826 827 827 826 826
723 728 732 736 739 741 745 747 750 752 754 756 758 762 764 766 771 777 779 777 776 776 776 773 775 777 777 777 780 782 784 786 788 791 793 793 794 797 799 801 803 804 807 808 811 813 812 816 819 817 817 817 817 817 818 820 820 825 831 833 837 837 840 849 851 855 856 846 842 844 843 839 834 830 826 826 831 833 829 827 827 825 824 824 825 825 825 824
722 727 731 735 738 741 744 746 749 752 753 754 754 754 754 754 759 766 772 776 776 775 773 772 773 775 775 776 778 779 782 787 790 791 793 794 793 797 801 803 805 808 811 812 812 814 815 816 815 812 813 816 822 826 825 824 824 827 831 834 840 841 843 851 853 854 857 847 842 849 848 839 833 828 823 825 829 830 826 825 824 822 823 823 823 824 823 822
721 726 730 734 737 740 743 746 749 751 753 754 753 752 750 749 750 754 761 772 776 775 774 773 774 775 776 777 778 777 780 787 793 793 793 794 793 796 802 803 804 810 815 814 812 817 819 816 814 819 823 825 831 830 824 827 829 829 833 834 838 842 845 853 855 855 856 848 841 849 849 834 826 825 822 825 828 827 827 828 827 825 824 823 822 822 822 822
721 725 729 733 736 740 743 746 748 751 752 752 752 752 751 750 752 754 758 767 775 776 774 774 775 777 778 779 778 777 779 786 792 793 793 793 794 796 799 803 805 812 816 811 810 818 821 817 820 828 825 823 831 830 823 827 832 832 833 833 838 844 844 844 851 856 858 854 848 850 847 831 822 823 825 830 833 831 831 832 830 830 828 824 823 824 824 822
720 724 729 732 735 739 742 745 749 751 751 752 751 750 750 751 752 754 758 767 775 776 775 776 776 777 778 778 777 778 781 786 789 791 792 792 795 797 798 803 808 812 813 809 809 813 819 828 834 832 823 820 827 830 824 823 831 838 836 832 837 843 843 844 849 855 857 858 856 852 843 830 824 826 824 829 834 832 830 830 828 828 828 826 825 824 824 823
719 724 727 731 735 738 742 746 748 749 751 752 750 748 749 751 752 753 758 769 777 778 777 776 776 777 776 776 777 778 781 786 789 791 791 791 793 797 801 804 806 811 814 813 812 812 821 837 839 830 826 823 824 827 824 821 829 838 836 833 835 835 841 849 851 850 848 849 856 856 842 830 827 826 823 827 830 828 827 827 825 825 825 825 824 823 822 822
718 723 726 730 734 737 742 745 746 749 751 750 747 747 749 749 752 753 756 771 780 779 778 777 777 777 775 778 779 778 782 789 791 791 792 792 791 794 801 806 808 812 816 815 815 819 829 839 837 828 826 826 825 826 825 824 828 834 836 839 838 835 840 848 848 844 842 845 857 861 847 834 827 820 824 832 829 826 826 824 824 824 824 824 823 823 822 821
717 722 726 729 733 735 738 739 743 747 748 747 744 746 749 749 752 751 759 780 784 775 777 780 778 776 776 780 778 778 786 790 791 793 792 792 792 791 797 805 808 812 817 815 816 825 834 838 836 828 826 828 826 825 825 824 825 832 841 844 839 836 840 845 843 842 846 849 855 858 850 843 835 824 827 835 829 825 825 823 824 825 824 824 824 824 823 822
717 721 725 729 732 734 734 735 740 743 743 743 743 746 748 749 752 751 764 787 782 769 773 778 776 775 777 780 780 782 787 786 789 795 793 792 794 792 795 802 804 811 818 814 816 827 832 832 832 829 828 827 826 828 830 825 825 838 851 848 841 840 842 843 842 844 853 853 847 851 854 848 837 826 828 833 828 825 825 824 825 826 826 826 825 824 824 823
716 720 724 728 732 734 735 735 738 739 740 742 743 746 747 749 751 753 767 780 773 766 771 775 776 777 779 780 783 787 787 787 791 793 793 793 793 792 796 803 804 811 819 814 816 829 833 832 830 826 823 826 834 842 841 830 828 844 854 847 844 846 846 846 845 845 853 852 846 856 864 852 834 823 826 830 826 823 824 826 827 827 828 827 826 826 824 824
716 720 724 728 731 734 735 736 738 738 740 742 744 746 747 749 752 765 779 772 763 770 774 774 776 778 780 782 787 790 788 791 793 792 794 794 793 795 799 803 803 809 817 819 824 832 835 835 834 831 829 834 842 849 849 842 838 844 845 838 841 845 844 847 848 847 852 852 854 869 875 863 842 823 820 825 823 819 820 826 828 827 828 828 827 827 826 825
716 720 724 727 730 732 733 736 736 737 741 742 744 746 746 751 758 774 781 761 756 775 778 776 778 777 778 780 787 791 791 794 794 791 794 796 797 799 801 804 804 811 819 821 827 833 833 833 834 836 840 840 838 841 849 850 845 843 835 832 841 847 847 849 851 853 854 853 861 876 880 872 850 826 819 822 822 820 819 823 827 827 828 829 828 828 827 826
717 720 724 727 730 731 732 734 734 738 741 741 745 745 744 758 766 768 768 756 758 773 772 772 777 776 775 777 784 790 791 794 794 791 793 796 800 800 799 800 801 813 822 820 825 832 830 832 835 839 843 838 829 835 848 849 844 839 832 832 842 852 857 855 856 860 857 857 870 878 878 869 845 822 818 821 822 822 820 820 823 825 827 828 829 829 829 828
718 721 725 728 730 732 732 733 734 738 740 741 745 743 745 762 765 756 758 758 758 765 763 767 775 774 775 779 786 790 789 793 795 794 795 796 798 800 800 800 797 802 812 817 824 830 830 834 837 836 837 834 826 829 840 843 840 834 829 830 838 853 863 864 868 872 863 862 874 880 874 860 837 820 816 817 818 822 823 824 825 826 827 828 830 831 830 830
718 722 725 728 730 732 731 733 735 737 740 742 741 744 751 759 756 750 755 759 760 763 763 767 775 776 776 780 785 785 787 796 797 794 798 798 799 801 800 802 802 797 804 816 821 822 826 830 832 832 833 832 829 827 827 828 833 835 831 829 833 840 847 854 859 858 857 864 875 880 868 843 827 823 820 820 822 826 829 831 831 830 830 831 831 832 831 831
719 722 725 728 730 731 731 733 736 737 741 741 740 746 751 750 748 746 750 757 762 765 766 768 773 778 782 785 786 784 784 794 798 797 799 798 796 798 795 796 802 800 800 811 818 818 820 825 831 838 839 834 831 831 827 824 832 841 838 834 834 830 833 856 870 864 864 866 865 869 856 830 821 822 823 826 827 828 831 833 832 830 831 832 831 831 831 831
719 723 726 728 729 730 732 733 736 738 739 738 740 745 742 737 740 740 741 750 757 760 767 772 774 779 786 788 789 788 785 790 797 798 799 799 795 794 791 789 796 798 793 798 812 817 818 826 836 839 839 837 835 834 832 828 831 838 839 836 837 834 834 856 877 880 875 858 848 854 844 826 822 818 819 825 824 826 830 830 830 829 830 831 831 831 832 832
719 722 725 727 728 730 732 733 736 739 739 737 737 740 737 735 740 740 739 745 750 752 759 769 774 775 781 786 787 787 784 788 797 797 798 801 795 791 792 790 791 793 790 792 803 808 812 827 839 837 834 838 841 838 834 833 833 834 835 832 835 840 836 837 853 868 870 854 845 851 844 830 825 820 821 824 821 823 827 827 829 830 830 830 830 831 832 833
717 721 725 727 728 729 731 734 736 738 740 739 735 737 739 739 743 745 742 742 744 747 751 760 768 770 773 778 782 783 782 785 795 796 796 799 791 783 787 790 790 791 790 791 797 800 806 822 838 841 836 838 839 835 832 835 835 832 831 829 830 835 836 836 844 853 857 854 847 850 854 844 827 817 818 821 818 818 823 826 828 828 828 828 829 831 832 834
717 720 725 727 728 730 731 734 737 738 741 739 732 735 741 743 746 749 746 741 740 743 747 751 760 768 770 770 773 780 780 781 791 793 791 794 789 780 780 783 788 793 792 790 793 799 804 813 831 841 838 837 836 831 828 831 836 836 833 832 832 831 831 833 838 836 838 847 847 847 851 839 818 809 808 808 809 810 818 824 824 823 825 825 827 830 831 833
716 719 725 727 727 730 732 734 738 739 739 735 729 735 743 744 747 751 749 745 742 743 745 746 754 762 767 769 770 775 778 780 786 786 783 786 786 782 780 778 785 794 796 793 793 800 803 807 823 839 840 836 833 830 825 822 827 832 831 832 834 835 836 834 836 837 834 839 845 847 840 820 806 806 802 799 803 805 812 818 818 820 822 823 826 828 830 833
715 718 725 727 726 729 732 735 739 739 738 735 732 738 743 742 745 749 750 749 746 747 746 746 750 754 760 766 767 770 777 780 783 782 781 783 780 778 778 775 779 789 795 795 794 797 802 806 822 838 839 833 829 832 834 828 825 824 823 824 823 828 834 832 837 847 844 840 843 846 835 811 802 810 809 804 806 806 808 812 815 819 821 823 826 828 830 832
716 719 725 726 726 728 730 735 739 738 737 737 734 736 740 740 743 746 749 748 746 748 749 748 751 753 755 759 762 767 773 778 782 780 778 779 773 772 776 775 777 781 785 791 793 796 803 810 825 837 836 834 834 840 847 844 833 826 825 824 819 821 822 820 827 841 848 852 849 848 841 815 805 818 818 813 815 813 810 811 815 820 821 824 827 828 831 832
720 723 726 726 726 728 729 735 740 739 739 738 736 738 740 740 742 745 747 746 746 748 748 747 750 753 754 757 761 764 767 773 778 774 773 775 773 775 779 777 778 779 781 787 792 797 801 807 822 836 835 834 835 837 843 845 837 828 826 826 824 822 819 820 825 828 838 847 843 844 842 815 805 821 823 820 824 822 816 814 815 819 821 823 826 828 830 832
724 727 728 726 727 728 727 729 732 735 739 739 738 741 743 742 743 744 744 744 745 746 744 746 751 751 753 756 758 759 760 767 772 772 772 774 775 782 783 778 777 777 778 781 782 787 794 799 814 831 836 836 836 835 836 837 834 826 823 827 826 824 826 832 833 829 832 836 829 832 831 809 804 819 821 820 824 821 818 816 814 817 820 821 825 828 830 831
726 729 730 728 727 726 727 727 725 729 736 737 737 740 742 744 746 745 743 744 748 746 742 747 753 751 753 756 757 759 759 762 766 771 775 775 777 784 785 780 778 775 776 779 776 779 789 794 800 812 824 829 829 825 818 816 824 825 823 826 824 823 825 825 828 831 830 832 830 823 815 805 806 812 813 817 820 818 818 818 817 819 819 821 824 826 828 829
726 729 730 730 729 729 731 731 727 728 731 730 735 740 738 740 746 747 744 745 750 748 745 750 753 751 753 755 757 761 762 765 768 768 772 776 779 785 787 785 783 779 780 781 777 780 790 794 792 792 796 799 797 798 796 798 811 817 817 820 821 823 822 819 825 828 823 830 835 819 804 805 807 806 809 814 815 813 814 817 819 819 819 820 823 824 826 827
727 728 730 730 731 732 734 734 729 728 727 725 731 737 737 738 744 746 746 746 748 748 748 751 751 748 750 753 756 760 762 766 770 769 771 777 781 787 789 786 785 784 783 781 779 782 789 793 792 787 786 785 785 791 794 795 801 803 807 816 820 822 823 821 820 815 812 826 828 810 804 809 804 801 805 808 809 810 811 812 813 813 815 819 822 825 826 827
729 731 733 730 729 731 732 732 731 729 727 726 730 735 736 739 741 743 745 748 749 747 746 750 750 748 747 748 751 758 764 768 770 772 775 778 781 785 786 785 786 786 784 783 783 783 785 787 789 789 788 789 793 798 797 794 795 798 804 811 816 820 822 819 813 806 808 815 807 797 804 807 798 796 799 800 802 803 803 804 806 808 813 817 821 824 824 825
731 732 734 732 732 733 731 730 731 730 727 728 733 736 735 736 738 740 743 747 749 748 745 745 749 750 749 747 747 754 761 762 766 772 775 776 778 780 781 782 785 787 785 784 785 786 783 784 788 790 790 793 801 806 802 798 797 800 805 808 812 816 815 811 807 802 803 803 796 798 806 800 792 791 792 793 796 797 799 804 807 809 812 816 819 819 820 822
730 730 732 732 734 736 733 732 732 731 731 731 733 735 734 734 737 740 742 743 744 747 746 743 747 752 753 751 748 750 752 751 754 762 768 773 775 775 774 773 778 787 787 783 785 787 785 786 790 792 792 797 806 810 808 806 802 802 807 810 811 814 813 809 803 800 803 803 799 805 810 801 790 789 790 793 797 800 804 806 807 808 810 813 814 815 817 820
729 730 730 729 733 737 736 735 734 732 733 732 731 733 733 732 734 738 741 743 741 742 744 744 748 754 756 753 750 749 750 749 749 752 756 760 763 764 766 765 770 780 784 783 784 784 786 791 794 794 793 797 810 816 812 810 807 806 811 813 812 810 806 802 797 795 799 801 803 811 811 797 788 788 792 797 800 802 803 804 805 806 808 810 811 812 815 818
731 731 731 729 734 739 738 738 737 734 733 732 730 732 732 731 733 734 738 745 744 741 742 743 745 751 755 754 751 749 750 752 753 755 757 758 758 760 763 764 765 769 775 781 782 783 785 786 791 794 789 798 823 826 810 808 811 808 801 798 800 800 795 795 797 795 793 794 800 805 796 783 782 785 789 796 800 800 799 799 801 803 805 809 809 810 813 816